Zurück zum Katalog

KUIPER-00595

AktivKommunikationLEO
NORAD 69280·PAYLOAD·🇺🇸 United States

Gestartet May 29, 2026 von Vandenberg Space Force Base

Loading…

Nächste Überflüge (nächste 24 Stunden)

TLE

AktuellSource: CelesTrak SupGP

Epoche: Sep 14, 2026, 23:23 UTC

1 69280C 26118P   26257.97437500 -.00056063  00000+0 -73413-2 0  2578
2 69280  51.8990 346.0923 0001297 153.5344 127.8721 14.79972593    15

Verfolge KUIPER-00595 in Echtzeit mit AllMySat

Download on the App Store